| time (UTC) | temp C | wind direction | speed KPH | gust KPH | rain 1hr cm | rain 24hr cm | rain mn cm | humidity % | barometer mb |
| 20260507061036 | 6 | 176 | 9.7 | 8.0 | 0.00 | 0.69 | 0.00 | 92 | 1000.0 |
| 20260507060537 | 6 | 187 | 8.0 | 4.8 | 0.00 | 0.69 | 0.00 | 92 | 1000.0 |
| 20260507060036 | 6 | 122 | 3.2 | 3.2 | 0.00 | 0.69 | 0.00 | 92 | 1000.1 |
| 20260507055538 | 6 | 197 | 4.8 | 4.8 | 0.00 | 0.69 | 0.00 | 92 | 1000.1 |
| 20260507055038 | 6 | 188 | 4.8 | 4.8 | 0.00 | 0.69 | 0.00 | 92 | 1000.2 |
| 20260507054505 | 6 | 190 | 4.8 | 4.8 | 0.00 | 0.69 | 0.00 | 92 | 1000.2 |
| 20260507054004 | 6 | 181 | 4.8 | 8.0 | 0.00 | 0.69 | 0.00 | 92 | 1000.2 |
| 20260507053505 | 6 | 189 | 0.0 | 0.0 | 0.00 | 0.69 | 0.00 | 92 | 1000.2 |
| 20260507053006 | 6 | 171 | 0.0 | 0.0 | 0.00 | 0.69 | 0.00 | 92 | 1000.2 |
| 20260507052505 | 6 | 161 | 0.0 | 0.0 | 0.00 | 0.69 | 0.00 | 92 | 1000.3 |
| 20260507052005 | 6 | 182 | 1.6 | 0.0 | 0.00 | 0.69 | 0.00 | 92 | 1000.3 |
| 20260507051508 | 6 | 138 | 1.6 | 3.2 | 0.00 | 0.69 | 0.00 | 92 | 1000.5 |
| 20260507051005 | 6 | 215 | 8.0 | 8.0 | 0.00 | 0.69 | 0.00 | 92 | 1000.5 |
| 20260507050505 | 6 | 183 | 0.0 | 0.0 | 0.00 | 0.69 | 0.00 | 92 | 1000.5 |
| 20260507045936 | 6 | 151 | 3.2 | 4.8 | 0.00 | 0.69 | 0.00 | 92 | 1000.7 |
| 20260507045434 | 6 | 323 | 4.8 | 8.0 | 0.00 | 0.69 | 0.00 | 92 | 1000.7 |
| 20260507044937 | 6 | 202 | 0.0 | 0.0 | 0.00 | 0.69 | 0.00 | 92 | 1000.9 |
| 20260507044434 | 6 | 155 | 1.6 | 3.2 | 0.00 | 0.69 | 0.00 | 92 | 1000.9 |
| 20260507043935 | 6 | 97 | 1.6 | 3.2 | 0.00 | 0.69 | 0.00 | 92 | 1001.0 |
| 20260507043435 | 6 | 158 | 0.0 | 0.0 | 0.00 | 0.69 | 0.00 | 92 | 1001.0 |
| 20260507042935 | 6 | 149 | 0.0 | 0.0 | 0.00 | 0.69 | 0.00 | 92 | 1001.0 |
| 20260507042434 | 6 | 160 | 4.8 | 3.2 | 0.00 | 0.69 | 0.00 | 92 | 1001.1 |
| 20260507041934 | 6 | 153 | 1.6 | 3.2 | 0.00 | 0.69 | 0.00 | 92 | 1001.1 |
| 20260507041436 | 6 | 188 | 1.6 | 3.2 | 0.00 | 0.69 | 0.00 | 92 | 1001.1 |
| 20260507040934 | 6 | 180 | 3.2 | 3.2 | 0.00 | 0.69 | 0.00 | 92 | 1001.1 |
| 20260507040406 | 6 | 145 | 0.0 | 0.0 | 0.00 | 0.69 | 0.00 | 91 | 1001.1 |
| 20260507035904 | 6 | 133 | 0.0 | 0.0 | 0.00 | 0.69 | 0.69 | 91 | 1001.1 |
| 20260507035407 | 6 | 90 | 0.0 | 0.0 | 0.00 | 0.69 | 0.69 | 91 | 1001.1 |
| 20260507034904 | 6 | 156 | 0.0 | 0.0 | 0.00 | 0.69 | 0.69 | 91 | 1001.2 |
| 20260507033904 | 6 | 112 | 0.0 | 0.0 | 0.00 | 0.69 | 0.69 | 90 | 1001.2 |
| 20260507033404 | 6 | 130 | 0.0 | 0.0 | 0.00 | 0.69 | 0.69 | 90 | 1001.2 |
| 20260507032904 | 6 | 109 | 0.0 | 0.0 | 0.00 | 0.69 | 0.69 | 89 | 1001.2 |
| 20260507032405 | 6 | 124 | 0.0 | 0.0 | 0.00 | 0.69 | 0.69 | 89 | 1001.3 |
| 20260507031404 | 6 | 106 | 0.0 | 0.0 | 0.00 | 0.69 | 0.69 | 87 | 1001.4 |
| 20260507030903 | 6 | 90 | 0.0 | 0.0 | 0.00 | 0.69 | 0.69 | 88 | 1001.4 |
| 20260507030403 | 7 | 182 | 0.0 | 0.0 | 0.00 | 0.69 | 0.69 | 88 | 1001.3 |
| 20260507025906 | 7 | 199 | 1.6 | 3.2 | 0.00 | 0.69 | 0.69 | 87 | 1001.3 |
| 20260507025335 | 7 | 148 | 0.0 | 0.0 | 0.00 | 0.69 | 0.69 | 86 | 1001.3 |
| 20260507024835 | 7 | 162 | 0.0 | 0.0 | 0.00 | 0.69 | 0.69 | 86 | 1001.3 |
| 20260507024335 | 7 | 140 | 3.2 | 3.2 | 0.00 | 0.69 | 0.69 | 86 | 1001.3 |
| 20260507023803 | 7 | 220 | 9.7 | 8.0 | 0.00 | 0.69 | 0.69 | 85 | 1001.4 |
| 20260507023303 | 7 | 207 | 4.8 | 4.8 | 0.00 | 0.69 | 0.69 | 85 | 1001.4 |
| 20260507022734 | 7 | 214 | 8.0 | 3.2 | 0.00 | 0.69 | 0.69 | 85 | 1001.6 |
| 20260507022237 | 7 | 164 | 8.0 | 8.0 | 0.00 | 0.69 | 0.69 | 85 | 1001.6 |
| 20260507021733 | 7 | 198 | 12.9 | 8.0 | 0.00 | 0.69 | 0.69 | 84 | 1001.6 |
| 20260507021234 | 7 | 180 | 1.6 | 3.2 | 0.00 | 0.69 | 0.69 | 84 | 1001.7 |
| 20260507020734 | 7 | 181 | 4.8 | 9.7 | 0.00 | 0.69 | 0.69 | 84 | 1001.7 |
| 20260507020237 | 7 | 227 | 8.0 | 9.7 | 0.00 | 0.69 | 0.69 | 83 | 1001.7 |
| 20260507015703 | 7 | 229 | 4.8 | 9.7 | 0.00 | 0.69 | 0.69 | 83 | 1001.7 |
| 20260507014705 | 7 | 223 | 1.6 | 0.0 | 0.00 | 0.69 | 0.69 | 83 | 1001.8 |
| 20260507014204 | 7 | 309 | 4.8 | 8.0 | 0.00 | 0.69 | 0.69 | 83 | 1001.8 |
| 20260507013705 | 7 | 117 | 3.2 | 3.2 | 0.00 | 0.69 | 0.69 | 83 | 1001.7 |
| 20260507013135 | 7 | 155 | 8.0 | 4.8 | 0.00 | 0.69 | 0.69 | 82 | 1001.7 |
| 20260507012635 | 7 | 179 | 9.7 | 8.0 | 0.00 | 0.69 | 0.69 | 82 | 1001.8 |
| 20260507010637 | 7 | 213 | 4.8 | 3.2 | 0.00 | 0.69 | 0.69 | 81 | 1001.6 |
| 20260507010134 | 7 | 217 | 4.8 | 9.7 | 0.00 | 0.69 | 0.69 | 80 | 1001.6 |
| 20260507005636 | 7 | 185 | 8.0 | 3.2 | 0.00 | 0.69 | 0.69 | 80 | 1001.6 |
| 20260507005133 | 7 | 183 | 8.0 | 8.0 | 0.00 | 0.69 | 0.69 | 79 | 1001.5 |
| 20260507004632 | 7 | 157 | 4.8 | 3.2 | 0.00 | 0.69 | 0.69 | 79 | 1001.5 |
| 20260507004135 | 7 | 204 | 1.6 | 8.0 | 0.00 | 0.69 | 0.69 | 79 | 1001.5 |
| 20260507003632 | 7 | 215 | 4.8 | 8.0 | 0.00 | 0.69 | 0.69 | 80 | 1001.3 |
| 20260507002602 | 7 | 252 | 1.6 | 3.2 | 0.00 | 0.69 | 0.69 | 80 | 1001.2 |
| 20260507002110 | 7 | 178 | 8.0 | 4.8 | 0.00 | 0.69 | 0.69 | 80 | 1001.2 |
| 20260507001602 | 7 | 159 | 4.8 | 3.2 | 0.00 | 0.69 | 0.69 | 80 | 1001.2 |
| 20260507000608 | 7 | 186 | 3.2 | 3.2 | 0.00 | 0.69 | 0.69 | 79 | 1001.2 |
| 20260506235605 | 8 | 186 | 0.0 | 0.0 | 0.00 | 0.69 | 0.69 | 78 | 1001.1 |
| 20260506235106 | 8 | 165 | 3.2 | 4.8 | 0.00 | 0.69 | 0.69 | 78 | 1001.2 |
| 20260506234607 | 8 | 223 | 3.2 | 3.2 | 0.00 | 0.69 | 0.69 | 77 | 1001.2 |
| 20260506234102 | 8 | 279 | 1.6 | 3.2 | 0.00 | 0.69 | 0.69 | 77 | 1001.1 |
| 20260506233033 | 8 | 160 | 8.0 | 3.2 | 0.00 | 0.69 | 0.69 | 76 | 1001.0 |
| 20260506232536 | 8 | 187 | 4.8 | 3.2 | 0.00 | 0.69 | 0.69 | 76 | 1000.9 |
| 20260506232037 | 8 | 321 | 11.3 | 9.7 | 0.00 | 0.69 | 0.69 | 76 | 1000.9 |
| 20260506231536 | 9 | 163 | 3.2 | 9.7 | 0.00 | 0.69 | 0.69 | 76 | 1000.7 |
| 20260506231034 | 9 | 207 | 11.3 | 8.0 | 0.00 | 0.69 | 0.69 | 76 | 1000.7 |
| 20260506230533 | 9 | 119 | 8.0 | 4.8 | 0.00 | 0.69 | 0.69 | 76 | 1000.8 |
| 20260506230031 | 9 | 204 | 4.8 | 4.8 | 0.00 | 0.69 | 0.69 | 75 | 1000.8 |
| 20260506225502 | 9 | 213 | 8.0 | 8.0 | 0.00 | 0.69 | 0.69 | 74 | 1000.8 |
| 20260506225001 | 9 | 198 | 3.2 | 8.0 | 0.00 | 0.69 | 0.69 | 74 | 1000.8 |
| 20260506224502 | 9 | 206 | 8.0 | 4.8 | 0.00 | 0.69 | 0.69 | 74 | 1000.8 |
| 20260506224001 | 9 | 193 | 8.0 | 9.7 | 0.00 | 0.69 | 0.69 | 75 | 1001.1 |
| 20260506223502 | 10 | 248 | 16.1 | 12.9 | 0.00 | 0.69 | 0.69 | 72 | 1001.1 |
| 20260506223004 | 9 | 240 | 14.5 | 11.3 | 0.00 | 0.69 | 0.69 | 73 | 1001.1 |
| 20260506222502 | 10 | 156 | 3.2 | 3.2 | 0.00 | 0.69 | 0.69 | 74 | 1001.1 |
| 20260506221504 | 10 | 215 | 4.8 | 8.0 | 0.00 | 0.69 | 0.69 | 74 | 1000.9 |
| 20260506221003 | 9 | 83 | 0.0 | 4.8 | 0.00 | 0.69 | 0.69 | 76 | 1000.9 |
| 20260506220001 | 9 | 232 | 12.9 | 9.7 | 0.00 | 0.69 | 0.69 | 74 | 1001.0 |
| 20260506215501 | 9 | 265 | 3.2 | 4.8 | 0.00 | 0.69 | 0.69 | 77 | 1001.0 |
| 20260506214932 | 10 | 234 | 8.0 | 8.0 | 0.00 | 0.69 | 0.69 | 74 | 1000.8 |
| 20260506214431 | 9 | 210 | 9.7 | 8.0 | 0.00 | 0.69 | 0.69 | 75 | 1000.8 |
| 20260506213933 | 9 | 215 | 11.3 | 8.0 | 0.00 | 0.69 | 0.69 | 75 | 1000.9 |
| 20260506213431 | 8 | 238 | 11.3 | 9.7 | 0.00 | 0.69 | 0.69 | 76 | 1000.9 |
| 20260506212931 | 9 | 152 | 3.2 | 3.2 | 0.00 | 0.69 | 0.69 | 76 | 1000.9 |
| 20260506212432 | 9 | 287 | 8.0 | 4.8 | 0.00 | 0.69 | 0.69 | 78 | 1001.0 |
| 20260506211931 | 9 | 115 | 4.8 | 3.2 | 0.00 | 0.69 | 0.69 | 77 | 1001.0 |
| 20260506211431 | 10 | 252 | 9.7 | 4.8 | 0.00 | 0.69 | 0.69 | 74 | 1001.2 |
| 20260506210401 | 10 | 184 | 3.2 | 3.2 | 0.00 | 0.69 | 0.69 | 75 | 1001.1 |
| 20260506205831 | 9 | 280 | 9.7 | 8.0 | 0.00 | 0.69 | 0.69 | 75 | 1001.1 |
| 20260506205331 | 9 | 284 | 0.0 | 0.0 | 0.00 | 0.69 | 0.69 | 74 | 1001.1 |
| 20260506204831 | 9 | 262 | 12.9 | 11.3 | 0.00 | 0.69 | 0.69 | 73 | 1001.2 |
| 20260506204331 | 9 | 238 | 1.6 | 8.0 | 0.00 | 0.69 | 0.69 | 75 | 1001.2 |
| 20260506203800 | 9 | 204 | 9.7 | 9.7 | 0.00 | 0.69 | 0.69 | 75 | 1001.3 |
| 20260506203304 | 9 | 258 | 11.3 | 11.3 | 0.00 | 0.69 | 0.69 | 76 | 1001.3 |
| 20260506202801 | 9 | 315 | 4.8 | 3.2 | 0.00 | 0.69 | 0.69 | 75 | 1001.2 |
| 20260506202306 | 9 | 142 | 9.7 | 8.0 | 0.00 | 0.69 | 0.69 | 76 | 1001.2 |
| 20260506201732 | 9 | 222 | 8.0 | 8.0 | 0.00 | 0.69 | 0.69 | 77 | 1001.2 |
| 20260506201232 | 10 | 246 | 8.0 | 9.7 | 0.00 | 0.69 | 0.69 | 75 | 1001.3 |
| 20260506200705 | 9 | 136 | 1.6 | 0.0 | 0.00 | 0.69 | 0.69 | 77 | 1001.3 |
| 20260506200132 | 9 | 238 | 9.7 | 8.0 | 0.00 | 0.69 | 0.69 | 75 | 1001.4 |
| 20260506195633 | 8 | 290 | 9.7 | 4.8 | 0.00 | 0.69 | 0.69 | 75 | 1001.4 |
| 20260506195131 | 8 | 182 | 8.0 | 8.0 | 0.00 | 0.69 | 0.69 | 77 | 1001.6 |
| 20260506194601 | 8 | 275 | 12.9 | 8.0 | 0.00 | 0.69 | 0.69 | 76 | 1001.6 |
| 20260506194102 | 8 | 288 | 9.7 | 8.0 | 0.00 | 0.69 | 0.69 | 78 | 1001.5 |
| 20260506193532 | 8 | 235 | 1.6 | 8.0 | 0.00 | 0.69 | 0.69 | 81 | 1001.5 |
| 20260506193001 | 8 | 270 | 4.8 | 9.7 | 0.00 | 0.69 | 0.69 | 81 | 1001.5 |
| 20260506192501 | 8 | 249 | 8.0 | 4.8 | 0.00 | 0.69 | 0.69 | 81 | 1001.5 |
| 20260506191931 | 8 | 237 | 9.7 | 8.0 | 0.00 | 0.69 | 0.69 | 81 | 1001.5 |
| 20260506191432 | 8 | 261 | 4.8 | 8.0 | 0.00 | 0.69 | 0.69 | 79 | 1001.4 |
| 20260506190901 | 8 | 292 | 0.0 | 0.0 | 0.00 | 0.69 | 0.69 | 77 | 1001.4 |
| 20260506190404 | 8 | 289 | 1.6 | 0.0 | 0.00 | 0.69 | 0.69 | 80 | 1001.3 |
| 20260506185833 | 8 | 50 | 0.0 | 4.8 | 0.00 | 0.69 | 0.69 | 79 | 1001.3 |
| 20260506185301 | 8 | 81 | 4.8 | 4.8 | 0.00 | 0.69 | 0.69 | 79 | 1001.4 |
| 20260506184802 | 8 | 84 | 0.0 | 0.0 | 0.00 | 0.69 | 0.69 | 82 | 1001.4 |
| 20260506184233 | 8 | 71 | 1.6 | 0.0 | 0.00 | 0.69 | 0.69 | 82 | 1001.4 |
| 20260506183700 | 8 | 161 | 1.6 | 0.0 | 0.00 | 0.69 | 0.69 | 81 | 1001.3 |
| 20260506182138 | 8 | 99 | 1.6 | 0.0 | 0.00 | 0.69 | 0.69 | 84 | 1001.5 |
| 20260506181600 | 7 | 93 | 0.0 | 0.0 | 0.00 | 0.69 | 0.69 | 82 | 1001.8 |
| 20260506181033 | 8 | 87 | 0.0 | 0.0 | 0.00 | 0.69 | 0.69 | 82 | 1001.8 |
| 20260506180533 | 7 | 112 | 0.0 | 0.0 | 0.00 | 0.69 | 0.69 | 82 | 1001.8 |
| 20260506180004 | 8 | 228 | 0.0 | 0.0 | 0.00 | 0.69 | 0.69 | 84 | 1002.0 |
| 20260506175431 | 7 | 125 | 0.0 | 0.0 | 0.00 | 0.69 | 0.69 | 82 | 1002.0 |
| 20260506174930 | 7 | 257 | 0.0 | 0.0 | 0.00 | 0.69 | 0.69 | 83 | 1002.0 |
| 20260506174431 | 7 | 326 | 0.0 | 0.0 | 0.00 | 0.69 | 0.69 | 84 | 1002.0 |
| 20260506173901 | 7 | 238 | 0.0 | 0.0 | 0.00 | 0.69 | 0.69 | 83 | 1002.1 |
| 20260506172831 | 7 | 32 | 0.0 | 0.0 | 0.03 | 0.69 | 0.69 | 84 | 1002.4 |
| 20260506172331 | 7 | 243 | 11.3 | 8.0 | 0.03 | 0.69 | 0.69 | 84 | 1002.4 |
| 20260506171831 | 8 | 270 | 1.6 | 8.0 | 0.03 | 0.69 | 0.69 | 84 | 1002.4 |
| 20260506171331 | 8 | 223 | 8.0 | 8.0 | 0.03 | 0.69 | 0.69 | 84 | 1002.3 |
| 20260506170301 | 8 | 306 | 1.6 | 0.0 | 0.03 | 0.69 | 0.69 | 83 | 1002.3 |
| 20260506165735 | 8 | 285 | 9.7 | 4.8 | 0.05 | 0.69 | 0.69 | 83 | 1002.3 |
| 20260506165231 | 8 | 267 | 4.8 | 4.8 | 0.05 | 0.69 | 0.69 | 84 | 1002.6 |
| 20260506164700 | 8 | 215 | 4.8 | 4.8 | 0.05 | 0.69 | 0.69 | 87 | 1002.6 |
| 20260506164200 | 8 | 237 | 0.0 | 0.0 | 0.05 | 0.69 | 0.69 | 87 | 1002.6 |
| 20260506163703 | 7 | 213 | 8.0 | 3.2 | 0.08 | 0.69 | 0.69 | 87 | 1002.7 |
| 20260506163131 | 7 | 211 | 0.0 | 0.0 | 0.08 | 0.66 | 0.66 | 87 | 1002.7 |
| 20260506162630 | 7 | 225 | 0.0 | 3.2 | 0.08 | 0.69 | 0.66 | 88 | 1002.7 |
| 20260506162130 | 7 | 209 | 4.8 | 3.2 | 0.08 | 0.76 | 0.66 | 87 | 1002.7 |
| 20260506161102 | 7 | 221 | 9.7 | 9.7 | 0.10 | 0.79 | 0.66 | 88 | 1003.0 |
| 20260506160534 | 7 | 200 | 4.8 | 3.2 | 0.13 | 0.79 | 0.66 | 87 | 1003.0 |
| 20260506160007 | 7 | 204 | 4.8 | 4.8 | 0.13 | 0.79 | 0.66 | 88 | 1003.0 |
| 20260506155434 | 7 | 177 | 3.2 | 3.2 | 0.10 | 0.76 | 0.64 | 88 | 1003.0 |
| 20260506154900 | 7 | 211 | 3.2 | 3.2 | 0.13 | 0.76 | 0.64 | 89 | 1002.9 |
| 20260506153832 | 7 | 228 | 4.8 | 3.2 | 0.10 | 0.74 | 0.61 | 89 | 1003.2 |
| 20260506153332 | 7 | 253 | 3.2 | 3.2 | 0.13 | 0.74 | 0.61 | 89 | 1003.2 |
| 20260506152800 | 7 | 229 | 4.8 | 4.8 | 0.10 | 0.71 | 0.58 | 89 | 1003.2 |
| 20260506152305 | 7 | 242 | 4.8 | 4.8 | 0.13 | 0.71 | 0.58 | 89 | 1003.2 |
| 20260506151800 | 7 | 257 | 0.0 | 0.0 | 0.10 | 0.69 | 0.56 | 88 | 1003.2 |
| 20260506145731 | 7 | 153 | 0.0 | 0.0 | 0.15 | 0.66 | 0.53 | 89 | 1003.2 |
| 20260506145201 | 7 | 194 | 0.0 | 0.0 | 0.15 | 0.66 | 0.53 | 88 | 1003.1 |
| 20260506144630 | 7 | 243 | 0.0 | 0.0 | 0.13 | 0.64 | 0.51 | 88 | 1003.1 |
| 20260506144131 | 7 | 194 | 3.2 | 3.2 | 0.13 | 0.64 | 0.51 | 89 | 1003.1 |
| 20260506143631 | 7 | 225 | 1.6 | 3.2 | 0.10 | 0.61 | 0.48 | 90 | 1003.0 |
| 20260506143130 | 7 | 236 | 9.7 | 4.8 | 0.13 | 0.61 | 0.48 | 89 | 1003.0 |
| 20260506142629 | 7 | 235 | 9.7 | 9.7 | 0.13 | 0.61 | 0.48 | 90 | 1003.0 |
| 20260506142107 | 7 | 213 | 3.2 | 3.2 | 0.10 | 0.58 | 0.46 | 91 | 1003.0 |
| 20260506141601 | 7 | 226 | 11.3 | 8.0 | 0.10 | 0.56 | 0.43 | 90 | 1003.0 |
| 20260506141104 | 7 | 213 | 9.7 | 8.0 | 0.10 | 0.56 | 0.43 | 91 | 1003.0 |
| 20260506140530 | 7 | 123 | 0.0 | 0.0 | 0.10 | 0.53 | 0.41 | 90 | 1003.0 |
| 20260506140031 | 7 | 261 | 3.2 | 4.8 | 0.10 | 0.53 | 0.41 | 90 | 1002.9 |
| 20260506135502 | 7 | 189 | 0.0 | 8.0 | 0.10 | 0.51 | 0.38 | 90 | 1002.9 |
| 20260506134931 | 7 | 203 | 1.6 | 3.2 | 0.13 | 0.51 | 0.38 | 90 | 1003.0 |
| 20260506134430 | 7 | 180 | 8.0 | 4.8 | 0.13 | 0.51 | 0.38 | 90 | 1003.0 |
| 20260506133929 | 7 | 219 | 11.3 | 8.0 | 0.15 | 0.51 | 0.38 | 91 | 1002.9 |
| 20260506133433 | 7 | 192 | 11.3 | 8.0 | 0.13 | 0.48 | 0.36 | 91 | 1002.9 |
| 20260506131829 | 7 | 239 | 11.3 | 8.0 | 0.15 | 0.48 | 0.36 | 91 | 1003.0 |
| 20260506131331 | 7 | 166 | 11.3 | 9.7 | 0.13 | 0.46 | 0.33 | 91 | 1002.9 |
| 20260506130759 | 7 | 146 | 1.6 | 0.0 | 0.13 | 0.43 | 0.30 | 91 | 1002.9 |
| 20260506130300 | 7 | 207 | 3.2 | 3.2 | 0.15 | 0.43 | 0.30 | 91 | 1003.1 |
| 20260506125733 | 7 | 224 | 4.8 | 11.3 | 0.15 | 0.41 | 0.28 | 91 | 1003.1 |
| 20260506125229 | 7 | 240 | 4.8 | 4.8 | 0.15 | 0.41 | 0.28 | 91 | 1003.1 |
| 20260506124230 | 7 | 117 | 0.0 | 3.2 | 0.13 | 0.38 | 0.25 | 91 | 1003.1 |
| 20260506123703 | 7 | 180 | 8.0 | 4.8 | 0.13 | 0.36 | 0.23 | 90 | 1002.9 |
| 20260506123130 | 7 | 187 | 9.7 | 8.0 | 0.15 | 0.38 | 0.23 | 91 | 1002.9 |
| 20260506122602 | 7 | 220 | 1.6 | 8.0 | 0.15 | 0.43 | 0.23 | 91 | 1002.9 |
| 20260506122031 | 7 | 248 | 11.3 | 9.7 | 0.13 | 0.41 | 0.20 | 91 | 1002.9 |
| 20260506121533 | 7 | 241 | 8.0 | 4.8 | 0.13 | 0.43 | 0.20 | 90 | 1002.9 |
| 20260506115930 | 7 | 206 | 0.0 | 0.0 | 0.10 | 0.38 | 0.15 | 90 | 1003.1 |
| 20260506115430 | 7 | 34 | 4.8 | 3.2 | 0.10 | 0.36 | 0.13 | 90 | 1003.1 |
| 20260506114900 | 7 | 207 | 4.8 | 3.2 | 0.10 | 0.36 | 0.13 | 90 | 1003.2 |
| 20260506113832 | 7 | 158 | 0.0 | 0.0 | 0.08 | 0.33 | 0.10 | 91 | 1003.4 |
| 20260506113332 | 7 | 213 | 14.5 | 11.3 | 0.10 | 0.33 | 0.10 | 91 | 1003.4 |
| 20260506112230 | 7 | 170 | 4.8 | 4.8 | 0.08 | 0.30 | 0.08 | 91 | 1003.3 |
| 20260506111732 | 7 | 180 | 8.0 | 4.8 | 0.08 | 0.30 | 0.08 | 91 | 1003.3 |
| 20260506110731 | 7 | 180 | 1.6 | 3.2 | 0.05 | 0.28 | 0.05 | 90 | 1003.2 |
| 20260506110202 | 7 | 165 | 4.8 | 8.0 | 0.05 | 0.28 | 0.05 | 89 | 1002.7 |
| 20260506105631 | 7 | 178 | 0.0 | 0.0 | 0.03 | 0.25 | 0.03 | 89 | 1002.7 |
| 20260506105059 | 8 | 169 | 4.8 | 3.2 | 0.03 | 0.25 | 0.03 | 89 | 1002.7 |
| 20260506104529 | 8 | 115 | 3.2 | 3.2 | 0.03 | 0.25 | 0.03 | 89 | 1002.7 |
| 20260506104034 | 8 | 171 | 0.0 | 3.2 | 0.03 | 0.25 | 0.03 | 88 | 1002.7 |
| 20260506103459 | 8 | 225 | 0.0 | 0.0 | 0.00 | 0.23 | 0.00 | 88 | 1002.7 |
| 20260506103003 | 8 | 162 | 0.0 | 4.8 | 0.00 | 0.23 | 0.00 | 86 | 1002.7 |
| 20260506102430 | 8 | 136 | 3.2 | 8.0 | 0.00 | 0.23 | 0.00 | 86 | 1002.6 |
| 20260506101906 | 8 | 229 | 0.0 | 0.0 | 0.00 | 0.23 | 0.00 | 85 | 1002.6 |
| 20260506100800 | 8 | 232 | 3.2 | 3.2 | 0.00 | 0.23 | 0.00 | 82 | 1002.5 |
| 20260506100259 | 8 | 169 | 0.0 | 0.0 | 0.00 | 0.23 | 0.00 | 82 | 1002.5 |
| 20260506095732 | 8 | 133 | 1.6 | 0.0 | 0.00 | 0.23 | 0.00 | 80 | 1002.5 |
| 20260506095201 | 8 | 155 | 8.0 | 4.8 | 0.00 | 0.23 | 0.00 | 79 | 1002.5 |
| 20260506094630 | 8 | 221 | 8.0 | 8.0 | 0.00 | 0.23 | 0.00 | 78 | 1002.5 |
| 20260506094131 | 9 | 138 | 4.8 | 4.8 | 0.00 | 0.23 | 0.00 | 77 | 1002.5 |
| 20260506093559 | 9 | 146 | 8.0 | 8.0 | 0.00 | 0.23 | 0.00 | 77 | 1002.1 |
| 20260506093029 | 9 | 205 | 0.0 | 0.0 | 0.00 | 0.23 | 0.00 | 76 | 1002.1 |
| 20260506092501 | 9 | 177 | 8.0 | 4.8 | 0.00 | 0.23 | 0.00 | 76 | 1002.2 |
| 20260506091930 | 9 | 118 | 11.3 | 8.0 | 0.00 | 0.23 | 0.00 | 76 | 1002.2 |
| 20260506091429 | 9 | 102 | 4.8 | 8.0 | 0.00 | 0.23 | 0.00 | 76 | 1001.8 |
| 20260506090933 | 9 | 240 | 11.3 | 14.5 | 0.00 | 0.23 | 0.00 | 76 | 1001.8 |
| 20260506090400 | 9 | 187 | 9.7 | 8.0 | 0.00 | 0.23 | 0.00 | 76 | 1001.9 |
| 20260506085901 | 9 | 247 | 12.9 | 12.9 | 0.00 | 0.23 | 0.00 | 76 | 1001.9 |
| 20260506085359 | 9 | 222 | 16.1 | 12.9 | 0.00 | 0.23 | 0.00 | 76 | 1001.9 |
| 20260506084829 | 9 | 192 | 8.0 | 8.0 | 0.00 | 0.23 | 0.00 | 76 | 1002.1 |
| 20260506084259 | 9 | 229 | 19.3 | 16.1 | 0.00 | 0.23 | 0.00 | 76 | 1002.1 |
| 20260506083800 | 9 | 239 | 12.9 | 9.7 | 0.00 | 0.23 | 0.00 | 76 | 1002.3 |
| 20260506083229 | 9 | 240 | 11.3 | 11.3 | 0.00 | 0.23 | 0.00 | 76 | 1002.3 |
| 20260506082729 | 9 | 259 | 19.3 | 16.1 | 0.00 | 0.23 | 0.00 | 76 | 1002.0 |
| 20260506082200 | 9 | 257 | 9.7 | 11.3 | 0.00 | 0.23 | 0.00 | 77 | 1002.0 |
| 20260506081630 | 9 | 224 | 11.3 | 12.9 | 0.00 | 0.23 | 0.00 | 77 | 1001.8 |
| 20260506081130 | 9 | 188 | 14.5 | 9.7 | 0.00 | 0.23 | 0.00 | 77 | 1001.7 |
| 20260506080602 | 9 | 254 | 14.5 | 11.3 | 0.00 | 0.23 | 0.00 | 77 | 1001.7 |
| 20260506073503 | 10 | 249 | 11.3 | 9.7 | 0.00 | 0.23 | 0.00 | 77 | 1002.1 |
| 20260506072929 | 10 | 343 | 11.3 | 8.0 | 0.00 | 0.23 | 0.00 | 77 | 1002.1 |
| 20260506072434 | 10 | 256 | 9.7 | 11.3 | 0.00 | 0.23 | 0.00 | 77 | 1001.9 |
| 20260506071859 | 10 | 213 | 16.1 | 16.1 | 0.00 | 0.23 | 0.00 | 77 | 1001.9 |
| 20260506071402 | 10 | 257 | 11.3 | 16.1 | 0.00 | 0.23 | 0.00 | 77 | 1001.9 |
| 20260506070900 | 10 | 225 | 29.0 | 22.5 | 0.00 | 0.23 | 0.00 | 76 | 1001.9 |
| 20260506070359 | 10 | 164 | 16.1 | 12.9 | 0.00 | 0.23 | 0.00 | 76 | 1001.8 |
| 20260506062229 | 10 | 131 | 16.1 | 12.9 | 0.00 | 0.23 | 0.00 | 76 | 1001.6 |
| 20260506061700 | 10 | 225 | 9.7 | 11.3 | 0.00 | 0.23 | 0.00 | 76 | 1001.5 |
| 20260506061203 | 10 | 300 | 12.9 | 12.9 | 0.00 | 0.23 | 0.00 | 76 | 1001.5 |